Hourly Weather Rumische

Today, 22 April, Thursday

Time Temperature Precipitation Wind Pressure Humidity
00:00 +5°C° 0 mm 3 mps 740 mmHg 81%
01:00 +4°C° 0 mm 3 mps 740 mmHg 83%
02:00 +4°C° 0 mm 3 mps 740 mmHg 84%
03:00 +3°C° 0 mm 3 mps 740 mmHg 84%
04:00 +4°C° 0 mm 2 mps 740 mmHg 84%
05:00 +3°C° 0 mm 2 mps 740 mmHg 85%
06:00 +5°C° 0 mm 2 mps 740 mmHg 80%
07:00 +6°C° 0 mm 2 mps 741 mmHg 76%
08:00 +7°C° 0 mm 2 mps 741 mmHg 71%
09:00 +8°C° 0 mm 3 mps 741 mmHg 69%
10:00 +9°C° 0 mm 3 mps 741 mmHg 67%
11:00 +10°C° 0 mm 4 mps 741 mmHg 66%
12:00 +8°C° 0.1 mm 4 mps 741 mmHg 71%
13:00 +6°C° 0.1 mm 5 mps 741 mmHg 77%
14:00 +5°C° 0.1 mm 5 mps 742 mmHg 83%
15:00 +5°C° 0 mm 5 mps 741 mmHg 76%
16:00 +6°C° 0 mm 4 mps 741 mmHg 68%
17:00 +7°C° 0 mm 4 mps 741 mmHg 61%
18:00 +7°C° 0 mm 3 mps 741 mmHg 66%
19:00 +5°C° 0 mm 3 mps 741 mmHg 70%
20:00 +4°C° 0 mm 3 mps 741 mmHg 75%
21:00 +3°C° 0 mm 3 mps 741 mmHg 77%
22:00 +3°C° 0 mm 3 mps 741 mmHg 78%
23:00 +1°C° 0 mm 4 mps 741 mmHg 80%

Tomorrow, 23 April, Friday

Time Temperature Precipitation Wind Pressure Humidity
00:00 +1°C° 0 mm 4 mps 741 mmHg 82%
01:00 0°C° 0 mm 4 mps 741 mmHg 84%
02:00 -1°C° 0 mm 4 mps 741 mmHg 87%
03:00 -1°C° 0 mm 4 mps 741 mmHg 86%
04:00 -1°C° 0 mm 4 mps 741 mmHg 85%
05:00 -1°C° 0 mm 5 mps 741 mmHg 84%
06:00 -1°C° 0 mm 5 mps 741 mmHg 84%
07:00 -1°C° 0 mm 5 mps 742 mmHg 85%
08:00 0°C° 0 mm 5 mps 742 mmHg 86%
09:00 -1°C° 0.1 mm 6 mps 742 mmHg 85%
10:00 -1°C° 0.1 mm 6 mps 742 mmHg 84%
11:00 +1°C° 0.1 mm 6 mps 742 mmHg 84%
12:00 +1°C° 0.1 mm 5 mps 743 mmHg 80%
13:00 +2°C° 0.1 mm 5 mps 743 mmHg 75%
14:00 +3°C° 0.1 mm 5 mps 743 mmHg 71%
15:00 +3°C° 0.3 mm 5 mps 743 mmHg 69%
16:00 +4°C° 0.3 mm 4 mps 743 mmHg 67%
17:00 +4°C° 0.3 mm 4 mps 744 mmHg 65%
18:00 +3°C° 0.2 mm 4 mps 744 mmHg 72%
19:00 +2°C° 0.2 mm 3 mps 744 mmHg 80%
20:00 +2°C° 0.2 mm 2 mps 744 mmHg 87%
21:00 +1°C° 0 mm 2 mps 744 mmHg 89%
22:00 +1°C° 0 mm 2 mps 744 mmHg 91%
23:00 -1°C° 0 mm 2 mps 744 mmHg 93%

Day after tomorrow, 24 April, Saturday

Time Temperature Precipitation Wind Pressure Humidity
00:00 -1°C° 0 mm 2 mps 744 mmHg 94%
01:00 -2°C° 0 mm 3 mps 744 mmHg 94%
02:00 -2°C° 0 mm 3 mps 744 mmHg 95%
03:00 -2°C° 0 mm 3 mps 743 mmHg 94%
04:00 -2°C° 0 mm 3 mps 743 mmHg 92%
05:00 -3°C° 0 mm 4 mps 743 mmHg 91%
06:00 -2°C° 0.1 mm 5 mps 743 mmHg 90%
07:00 -1°C° 0.1 mm 5 mps 743 mmHg 89%
08:00 -2°C° 0.1 mm 6 mps 743 mmHg 87%
09:00 -1°C° 0.2 mm 6 mps 743 mmHg 83%
10:00 0°C° 0.2 mm 7 mps 743 mmHg 78%
11:00 0°C° 0.2 mm 7 mps 743 mmHg 74%
12:00 +2°C° 0.2 mm 7 mps 743 mmHg 72%
13:00 +2°C° 0.2 mm 7 mps 744 mmHg 71%
14:00 +2°C° 0.2 mm 6 mps 744 mmHg 69%
15:00 +2°C° 0.2 mm 6 mps 744 mmHg 68%
16:00 +2°C° 0.2 mm 6 mps 743 mmHg 67%
17:00 +3°C° 0.2 mm 5 mps 743 mmHg 67%
18:00 +2°C° 0 mm 5 mps 743 mmHg 70%
19:00 0°C° 0 mm 4 mps 743 mmHg 74%
20:00 -1°C° 0 mm 4 mps 743 mmHg 77%
21:00 -1°C° 0 mm 4 mps 743 mmHg 81%
22:00 -2°C° 0 mm 5 mps 743 mmHg 85%
23:00 -2°C° 0 mm 5 mps 743 mmHg 88%

25 April, Sunday

Time Temperature Precipitation Wind Pressure Humidity
00:00 -2°C° 0.1 mm 5 mps 743 mmHg 91%
01:00 -2°C° 0.1 mm 5 mps 743 mmHg 93%
02:00 -2°C° 0.1 mm 5 mps 743 mmHg 95%
03:00 -2°C° 0 mm 5 mps 743 mmHg 94%
04:00 -2°C° 0 mm 5 mps 743 mmHg 92%
05:00 -3°C° 0 mm 6 mps 743 mmHg 91%
06:00 -3°C° 0.1 mm 6 mps 743 mmHg 88%
07:00 -3°C° 0.1 mm 6 mps 743 mmHg 85%
08:00 -2°C° 0.1 mm 7 mps 743 mmHg 82%
09:00 -1°C° 0.1 mm 7 mps 743 mmHg 79%
10:00 -1°C° 0.1 mm 7 mps 743 mmHg 75%
11:00 0°C° 0.1 mm 7 mps 743 mmHg 72%
12:00 0°C° 0.4 mm 7 mps 743 mmHg 74%
13:00 0°C° 0.4 mm 7 mps 743 mmHg 76%
14:00 +2°C° 0.4 mm 7 mps 743 mmHg 78%
15:00 +2°C° 0.3 mm 7 mps 744 mmHg 78%
16:00 +2°C° 0.3 mm 6 mps 744 mmHg 77%
17:00 +2°C° 0.3 mm 6 mps 744 mmHg 77%
18:00 +1°C° 0 mm 5 mps 744 mmHg 81%
19:00 0°C° 0 mm 5 mps 744 mmHg 84%
20:00 -1°C° 0 mm 5 mps 744 mmHg 88%
21:00 -1°C° 0 mm 4 mps 744 mmHg 89%
22:00 -2°C° 0 mm 4 mps 744 mmHg 90%
23:00 -2°C° 0 mm 4 mps 744 mmHg 91%

26 April, Monday

Time Temperature Precipitation Wind Pressure Humidity
00:00 -2°C° 0.1 mm 4 mps 744 mmHg 91%
01:00 -2°C° 0.1 mm 4 mps 744 mmHg 92%
02:00 -2°C° 0.1 mm 4 mps 744 mmHg 92%
03:00 -3°C° 0.2 mm 4 mps 744 mmHg 93%
04:00 -3°C° 0.2 mm 4 mps 744 mmHg 94%
05:00 -3°C° 0.2 mm 4 mps 744 mmHg 95%
06:00 -2°C° 0.2 mm 4 mps 744 mmHg 92%
07:00 -2°C° 0.2 mm 4 mps 744 mmHg 89%
08:00 -1°C° 0.2 mm 5 mps 744 mmHg 86%
09:00 -1°C° 0.2 mm 5 mps 744 mmHg 81%
10:00 0°C° 0.2 mm 5 mps 744 mmHg 76%
11:00 +1°C° 0.2 mm 5 mps 744 mmHg 71%
12:00 +2°C° 0.2 mm 5 mps 744 mmHg 68%
13:00 +2°C° 0.2 mm 5 mps 744 mmHg 65%
14:00 +3°C° 0.2 mm 5 mps 744 mmHg 62%
15:00 +4°C° 0.1 mm 4 mps 744 mmHg 61%
16:00 +4°C° 0.1 mm 4 mps 744 mmHg 61%
17:00 +4°C° 0.1 mm 3 mps 744 mmHg 60%
18:00 +3°C° 0 mm 3 mps 744 mmHg 67%
19:00 +2°C° 0 mm 2 mps 744 mmHg 75%
20:00 +1°C° 0 mm 2 mps 744 mmHg 82%
21:00 +1°C° 0 mm 2 mps 744 mmHg 85%
22:00 -1°C° 0 mm 2 mps 744 mmHg 88%
23:00 -1°C° 0 mm 2 mps 744 mmHg 91%

27 April, Tuesday

Time Temperature Precipitation Wind Pressure Humidity
00:00 -2°C° 0 mm 2 mps 744 mmHg 92%
01:00 -2°C° 0 mm 2 mps 744 mmHg 94%
02:00 -2°C° 0 mm 2 mps 745 mmHg 96%
03:00 -2°C° 0 mm 2 mps 745 mmHg 95%
04:00 -2°C° 0 mm 2 mps 745 mmHg 95%
05:00 -2°C° 0 mm 3 mps 745 mmHg 94%
06:00 -1°C° 0 mm 3 mps 745 mmHg 90%
07:00 0°C° 0 mm 3 mps 745 mmHg 85%
08:00 +1°C° 0 mm 3 mps 745 mmHg 81%
09:00 +2°C° 0 mm 3 mps 745 mmHg 75%
10:00 +3°C° 0 mm 3 mps 745 mmHg 69%
11:00 +3°C° 0 mm 3 mps 745 mmHg 63%
12:00 +4°C° 0 mm 3 mps 745 mmHg 64%
13:00 +4°C° 0 mm 3 mps 745 mmHg 64%
14:00 +4°C° 0 mm 3 mps 744 mmHg 64%
15:00 +5°C° 0 mm 2 mps 744 mmHg 66%
16:00 +5°C° 0 mm 2 mps 744 mmHg 67%
17:00 +5°C° 0 mm 2 mps 744 mmHg 69%
18:00 +5°C° 0 mm 1 mps 744 mmHg 71%
19:00 +5°C° 0 mm 1 mps 744 mmHg 74%
20:00 +4°C° 0 mm 1 mps 744 mmHg 77%
21:00 +4°C° 0 mm 1 mps 744 mmHg 78%
22:00 +4°C° 0 mm 1 mps 743 mmHg 79%
23:00 +3°C° 0 mm 1 mps 743 mmHg 80%
Show more